"Data set title: Gaging station water sample data. Usage: Event based table used with water chemistry collection from 06-May-2015 to 30-Sep-2015",,,,,,,,,,,,
,,,,,,,,,,,,,
"Site","Date","RecNum","SiteID","Flag_SiteID","LOGGERID","PROGID","VNOTCH_INST_0_0_01","Flag_VNOTCH_INST_0_0_01","SAMPLE_INST_0_0_01","Flag_SAMPLE_INST_0_0_01","STAGE_INST_0_0_01","Flag_STAGE_INST_0_0_01"
"","yyyy-MM-dd HH:mm:ss","count","","none","none","none","none","none","count","none","ft","none"
"nominal","datetime","nominal","data","code","nominal","nominal","data","code","data","code","data","code"
"GSWS07_119",2015-05-06 17:11:00,0,107.00,"",119,36266.0,0,"",1,"",0.1020,""
"GSWS07_119",2015-05-07 06:28:15,1,107.00,"",119,36266.0,0,"",28,"",0.1020,""
"GSWS07_119",2015-05-07 19:46:15,2,107.00,"",119,36266.0,0,"",29,"",0.0990,""
"GSWS07_119",2015-05-08 09:04:15,3,107.00,"",119,36266.0,0,"",30,"",0.0990,""
"GSWS07_119",2015-05-08 22:22:15,4,107.00,"",119,36266.0,0,"",31,"",0.0970,""
"GSWS07_119",2015-05-09 11:40:15,5,107.00,"",119,36266.0,0,"",32,"",0.0960,""
"GSWS07_119",2015-05-10 00:58:15,6,107.00,"",119,36266.0,0,"",33,"",0.0950,""
"GSWS07_119",2015-05-10 14:16:15,7,107.00,"",119,36266.0,0,"",34,"",0.0940,""
"GSWS07_119",2015-05-11 03:34:15,8,107.00,"",119,36266.0,0,"",35,"",0.0940,""
"GSWS07_119",2015-05-11 16:52:15,9,107.00,"",119,36266.0,0,"",36,"",0.0950,""
"GSWS07_119",2015-05-12 06:10:15,10,107.00,"",119,36266.0,0,"",37,"",0.0990,""
"GSWS07_119",2015-05-12 19:28:15,11,107.00,"",119,36266.0,0,"",38,"",0.0970,""
"GSWS07_119",2015-05-13 08:46:15,12,107.00,"",119,36266.0,0,"",39,"",0.0960,""
"GSWS07_119",2015-05-13 14:43:00,13,107.00,"",119,36266.0,0,"",40,"",0.0950,""
"GSWS07_119",2015-05-13 22:04:15,14,107.00,"",119,36266.0,0,"",1,"",0.0940,""
"GSWS07_119",2015-05-14 11:22:15,15,107.00,"",119,36266.0,0,"",2,"",0.0930,""
"GSWS07_119",2015-05-15 00:40:15,16,107.00,"",119,36266.0,0,"",3,"",0.0950,""
"GSWS07_119",2015-05-15 13:58:15,17,107.00,"",119,36266.0,0,"",4,"",0.0930,""
"GSWS07_119",2015-05-16 03:16:15,18,107.00,"",119,36266.0,0,"",5,"",0.0920,""
"GSWS07_119",2015-05-16 16:34:15,19,107.00,"",119,36266.0,0,"",6,"",0.0910,""
"GSWS07_119",2015-05-17 05:52:15,20,107.00,"",119,36266.0,0,"",7,"",0.0910,""
"GSWS07_119",2015-05-17 19:10:15,21,107.00,"",119,36266.0,0,"",8,"",0.0890,""
"GSWS07_119",2015-05-18 08:28:15,22,107.00,"",119,36266.0,0,"",9,"",0.0890,""
"GSWS07_119",2015-05-18 21:46:15,23,107.00,"",119,36266.0,0,"",10,"",0.0970,""
"GSWS07_119",2015-05-19 11:04:15,24,107.00,"",119,36266.0,0,"",11,"",0.0910,""
"GSWS07_119",2015-05-20 00:22:15,25,107.00,"",119,36266.0,0,"",12,"",0.0910,""
"GSWS07_119",2015-05-20 13:40:15,26,107.00,"",119,36266.0,0,"",13,"",0.0890,""
"GSWS07_119",2015-05-21 02:58:15,27,107.00,"",119,36266.0,0,"",14,"",0.0890,""
"GSWS07_119",2015-05-21 16:16:15,28,107.00,"",119,36266.0,0,"",15,"",0.0950,""
"GSWS07_119",2015-05-22 05:34:15,29,107.00,"",119,36266.0,0,"",16,"",0.0920,""
"GSWS07_119",2015-05-22 18:52:15,30,107.00,"",119,36266.0,0,"",17,"",0.0920,""
"GSWS07_119",2015-05-23 08:10:15,31,107.00,"",119,36266.0,0,"",18,"",0.0910,""
"GSWS07_119",2015-05-23 21:28:15,32,107.00,"",119,36266.0,0,"",19,"",0.0890,""
"GSWS07_119",2015-05-24 10:46:15,33,107.00,"",119,36266.0,0,"",20,"",0.0890,""
"GSWS07_119",2015-05-25 00:04:15,34,107.00,"",119,36266.0,0,"",21,"",0.0870,""
"GSWS07_119",2015-05-25 13:22:15,35,107.00,"",119,36266.0,0,"",22,"",0.0850,""
"GSWS07_119",2015-05-26 02:40:15,36,107.00,"",119,36266.0,0,"",23,"",0.0850,""
"GSWS07_119",2015-05-26 15:58:15,37,107.00,"",119,36266.0,0,"",24,"",0.0830,""
"GSWS07_119",2015-05-27 05:16:15,38,107.00,"",119,36266.0,0,"",25,"",0.0830,""
"GSWS07_119",2015-05-27 18:34:15,39,107.00,"",119,36266.0,0,"",26,"",0.0810,""
"GSWS07_119",2015-05-28 07:52:15,40,107.00,"",119,36266.0,0,"",27,"",0.0810,""
"GSWS07_119",2015-05-28 21:10:15,41,107.00,"",119,36266.0,0,"",28,"",0.0780,""
"GSWS07_119",2015-05-29 10:28:15,42,107.00,"",119,36266.0,0,"",29,"",0.0780,""
"GSWS07_119",2015-05-29 23:46:15,43,107.00,"",119,36266.0,0,"",30,"",0.0770,""
"GSWS07_119",2015-05-30 13:04:15,44,107.00,"",119,36266.0,0,"",31,"",0.0760,""
"GSWS07_119",2015-05-31 02:22:15,45,107.00,"",119,36266.0,0,"",32,"",0.0760,""
"GSWS07_119",2015-05-31 15:40:15,46,107.00,"",119,36266.0,0,"",33,"",0.0750,""
"GSWS07_119",2015-06-01 04:58:15,47,107.00,"",119,36266.0,0,"",34,"",0.0740,""
"GSWS07_119",2015-06-01 18:16:15,48,107.00,"",119,36266.0,0,"",35,"",0.0740,""
"GSWS07_119",2015-06-02 07:34:15,49,107.00,"",119,36266.0,0,"",36,"",0.0760,""
"GSWS07_119",2015-06-02 20:04:45,50,107.00,"",119,36266.0,0,"",37,"",0.0810,""
"GSWS07_119",2015-06-02 20:52:15,51,107.00,"",119,36266.0,0,"",1,"",0.0810,""
"GSWS07_119",2015-06-03 10:10:15,52,107.00,"",119,36266.0,0,"",2,"",0.0780,""
"GSWS07_119",2015-06-03 23:28:15,53,107.00,"",119,36266.0,0,"",3,"",0.0760,""
"GSWS07_119",2015-06-04 12:46:15,54,107.00,"",119,36266.0,0,"",4,"",0.0740,""
"GSWS07_119",2015-06-05 02:04:15,55,107.00,"",119,36266.0,0,"",5,"",0.0730,""
"GSWS07_119",2015-06-05 15:22:15,56,107.00,"",119,36266.0,0,"",6,"",0.0710,""
"GSWS07_119",2015-06-06 04:40:15,57,107.00,"",119,36266.0,0,"",7,"",0.0730,""
"GSWS07_119",2015-06-06 17:58:15,58,107.00,"",119,36266.0,0,"",8,"",0.0690,""
"GSWS07_119",2015-06-07 07:16:15,59,107.00,"",119,36266.0,0,"",9,"",0.0690,""
"GSWS07_119",2015-06-07 20:34:15,60,107.00,"",119,36266.0,0,"",10,"",0.0680,""
"GSWS07_119",2015-06-08 09:52:15,61,107.00,"",119,36266.0,0,"",11,"",0.0680,""
"GSWS07_119",2015-06-08 23:10:15,62,107.00,"",119,36266.0,0,"",12,"",0.0660,""
"GSWS07_119",2015-06-09 12:28:15,63,107.00,"",119,36266.0,0,"",13,"",0.0670,""
"GSWS07_119",2015-06-10 01:46:15,64,107.00,"",119,36266.0,0,"",14,"",0.0640,""
"GSWS07_119",2015-06-10 15:04:15,65,107.00,"",119,36266.0,0,"",15,"",0.0640,""
"GSWS07_119",2015-06-11 04:22:15,66,107.00,"",119,36266.0,0,"",16,"",0.0640,""
"GSWS07_119",2015-06-11 17:40:15,67,107.00,"",119,36266.0,0,"",17,"",0.0630,""
"GSWS07_119",2015-06-12 06:58:15,68,107.00,"",119,36266.0,0,"",18,"",0.0640,""
"GSWS07_119",2015-06-12 20:16:15,69,107.00,"",119,36266.0,0,"",19,"",0.0630,""
"GSWS07_119",2015-06-13 09:34:15,70,107.00,"",119,36266.0,0,"",20,"",0.0630,""
"GSWS07_119",2015-06-13 22:52:15,71,107.00,"",119,36266.0,0,"",21,"",0.0620,""
"GSWS07_119",2015-06-14 12:10:15,72,107.00,"",119,36266.0,0,"",22,"",0.0620,""
"GSWS07_119",2015-06-15 01:28:15,73,107.00,"",119,36266.0,0,"",23,"",0.0640,""
"GSWS07_119",2015-06-15 14:46:15,74,107.00,"",119,36266.0,0,"",24,"",0.0600,""
"GSWS07_119",2015-06-16 04:04:15,75,107.00,"",119,36266.0,0,"",25,"",0.0610,""
"GSWS07_119",2015-06-16 17:22:15,76,107.00,"",119,36266.0,1,"",26,"",0.0990,""
"GSWS07_119",2015-06-17 06:40:15,77,107.00,"",119,36266.0,1,"",27,"",0.1100,""
"GSWS07_119",2015-06-17 19:58:15,78,107.00,"",119,36266.0,1,"",28,"",0.1060,""
"GSWS07_119",2015-06-18 09:16:15,79,107.00,"",119,36266.0,1,"",29,"",0.1100,""
"GSWS07_119",2015-06-18 22:34:15,80,107.00,"",119,36266.0,1,"",30,"",0.1080,""
"GSWS07_119",2015-06-19 11:52:15,81,107.00,"",119,36266.0,1,"",31,"",0.1060,""
"GSWS07_119",2015-06-20 01:10:15,82,107.00,"",119,36266.0,1,"",32,"",0.1080,""
"GSWS07_119",2015-06-20 14:28:15,83,107.00,"",119,36266.0,1,"",33,"",0.1010,""
"GSWS07_119",2015-06-21 03:46:15,84,107.00,"",119,36266.0,1,"",34,"",0.1080,""
"GSWS07_119",2015-06-21 17:04:15,85,107.00,"",119,36266.0,1,"",35,"",0.1010,""
"GSWS07_119",2015-06-22 06:22:15,86,107.00,"",119,36266.0,1,"",36,"",0.1080,""
"GSWS07_119",2015-06-22 19:40:15,87,107.00,"",119,36266.0,1,"",1,"",0.1010,""
"GSWS07_119",2015-06-23 08:58:15,88,107.00,"",119,36266.0,1,"",2,"",0.1060,""
"GSWS07_119",2015-06-23 22:16:15,89,107.00,"",119,36266.0,1,"",3,"",0.1040,""
"GSWS07_119",2015-06-24 11:34:15,90,107.00,"",119,36266.0,1,"",4,"",0.1020,""
"GSWS07_119",2015-06-25 00:52:15,91,107.00,"",119,36266.0,1,"",5,"",0.1040,""
"GSWS07_119",2015-06-25 14:10:15,92,107.00,"",119,36266.0,1,"",6,"",0.0970,""
"GSWS07_119",2015-06-26 03:28:15,93,107.00,"",119,36266.0,1,"",7,"",0.1070,""
"GSWS07_119",2015-06-26 16:46:15,94,107.00,"",119,36266.0,1,"",8,"",0.0950,""
"GSWS07_119",2015-06-27 06:04:15,95,107.00,"",119,36266.0,1,"",9,"",0.1070,""
"GSWS07_119",2015-06-27 19:22:15,96,107.00,"",119,36266.0,1,"",10,"",0.0980,""
"GSWS07_119",2015-06-28 08:40:15,97,107.00,"",119,36266.0,1,"",11,"",0.1040,""
"GSWS07_119",2015-06-28 21:58:15,98,107.00,"",119,36266.0,1,"",12,"",0.1050,""
"GSWS07_119",2015-06-29 11:16:15,99,107.00,"",119,36266.0,1,"",13,"",0.1020,""
"GSWS07_119",2015-06-30 00:34:15,100,107.00,"",119,36266.0,1,"",14,"",0.1020,""
"GSWS07_119",2015-06-30 13:52:15,101,107.00,"",119,36266.0,1,"",15,"",0.0940,""
"GSWS07_119",2015-07-01 03:10:15,102,107.00,"",119,36266.0,1,"",16,"",0.1000,""
"GSWS07_119",2015-07-01 16:28:15,103,107.00,"",119,36266.0,1,"",17,"",0.0920,""
"GSWS07_119",2015-07-02 05:46:15,104,107.00,"",119,36266.0,1,"",18,"",0.0990,""
"GSWS07_119",2015-07-02 19:04:15,105,107.00,"",119,36266.0,1,"",19,"",0.0910,""
"GSWS07_119",2015-07-03 08:22:15,106,107.00,"",119,36266.0,1,"",20,"",0.0980,""
"GSWS07_119",2015-07-03 21:40:15,107,107.00,"",119,36266.0,1,"",21,"",0.0930,""
"GSWS07_119",2015-07-04 10:58:15,108,107.00,"",119,36266.0,1,"",22,"",0.0950,""
"GSWS07_119",2015-07-05 00:16:15,109,107.00,"",119,36266.0,1,"",23,"",0.0940,""
"GSWS07_119",2015-07-05 13:34:15,110,107.00,"",119,36266.0,1,"",24,"",0.0870,""
"GSWS07_119",2015-07-06 02:52:15,111,107.00,"",119,36266.0,1,"",25,"",0.0930,""
"GSWS07_119",2015-07-06 13:28:00,112,107.00,"",119,36266.0,1,"",26,"",0.0860,""
"GSWS07_119",2015-07-06 16:10:15,113,107.00,"",119,36266.0,1,"",26,"",0.0840,""
"GSWS07_119",2015-07-07 05:28:15,114,107.00,"",119,36266.0,1,"",27,"",0.0930,""
"GSWS07_119",2015-07-07 18:46:15,115,107.00,"",119,36266.0,1,"",28,"",0.0850,""
"GSWS07_119",2015-07-08 08:04:15,116,107.00,"",119,36266.0,1,"",29,"",0.0950,""
"GSWS07_119",2015-07-08 21:22:15,117,107.00,"",119,36266.0,1,"",30,"",0.0890,""
"GSWS07_119",2015-07-09 10:40:15,118,107.00,"",119,36266.0,1,"",31,"",0.0930,""
"GSWS07_119",2015-07-09 23:58:15,119,107.00,"",119,36266.0,1,"",32,"",0.0990,""
"GSWS07_119",2015-07-10 13:16:15,120,107.00,"",119,36266.0,1,"",33,"",0.1010,""
"GSWS07_119",2015-07-11 02:34:15,121,107.00,"",119,36266.0,1,"",34,"",0.0950,""
"GSWS07_119",2015-07-11 15:52:15,122,107.00,"",119,36266.0,1,"",35,"",0.0960,""
"GSWS07_119",2015-07-12 05:10:15,123,107.00,"",119,36266.0,1,"",36,"",0.0970,""
"GSWS07_119",2015-07-12 18:28:15,124,107.00,"",119,36266.0,1,"",37,"",0.0900,""
"GSWS07_119",2015-07-13 07:46:15,125,107.00,"",119,36266.0,1,"",38,"",0.0950,""
"GSWS07_119",2015-07-13 21:04:15,126,107.00,"",119,36266.0,1,"",39,"",0.0910,""
"GSWS07_119",2015-07-14 10:22:15,127,107.00,"",119,36266.0,1,"",40,"",0.0950,""
"GSWS07_119",2015-07-14 12:05:45,128,107.00,"",119,36266.0,1,"",41,"",0.0910,""
"GSWS07_119",2015-07-14 12:09:15,129,107.00,"",119,36266.0,1,"",42,"",0.0910,""
"GSWS07_119",2015-07-14 23:40:15,130,107.00,"",119,36266.0,1,"",1,"",0.0890,""
"GSWS07_119",2015-07-15 12:58:15,131,107.00,"",119,36266.0,1,"",2,"",0.0870,""
"GSWS07_119",2015-07-16 02:16:15,132,107.00,"",119,36266.0,1,"",3,"",0.0910,""
"GSWS07_119",2015-07-16 15:34:15,133,107.00,"",119,36266.0,1,"",4,"",0.0870,""
"GSWS07_119",2015-07-17 04:52:15,134,107.00,"",119,36266.0,1,"",5,"",0.0930,""
"GSWS07_119",2015-07-17 18:10:15,135,107.00,"",119,36266.0,1,"",6,"",0.0860,""
"GSWS07_119",2015-07-18 07:28:15,136,107.00,"",119,36266.0,1,"",7,"",0.0910,""
"GSWS07_119",2015-07-18 20:46:15,137,107.00,"",119,36266.0,1,"",8,"",0.0850,""
"GSWS07_119",2015-07-19 10:04:15,138,107.00,"",119,36266.0,1,"",9,"",0.0870,""
"GSWS07_119",2015-07-19 23:22:15,139,107.00,"",119,36266.0,1,"",10,"",0.0830,""
"GSWS07_119",2015-07-20 12:40:15,140,107.00,"",119,36266.0,1,"",11,"",0.0760,""
"GSWS07_119",2015-07-21 01:58:15,141,107.00,"",119,36266.0,1,"",12,"",0.0790,""
"GSWS07_119",2015-07-21 15:16:15,142,107.00,"",119,36266.0,1,"",13,"",0.0760,""
"GSWS07_119",2015-07-22 04:34:15,143,107.00,"",119,36266.0,1,"",14,"",0.0810,""
"GSWS07_119",2015-07-22 17:52:15,144,107.00,"",119,36266.0,1,"",15,"",0.0760,""
"GSWS07_119",2015-07-23 07:10:15,145,107.00,"",119,36266.0,1,"",16,"",0.0850,""
"GSWS07_119",2015-07-23 20:28:15,146,107.00,"",119,36266.0,1,"",17,"",0.0810,""
"GSWS07_119",2015-07-24 09:46:15,147,107.00,"",119,36266.0,1,"",18,"",0.0830,""
"GSWS07_119",2015-07-24 23:04:15,148,107.00,"",119,36266.0,1,"",19,"",0.0790,""
"GSWS07_119",2015-07-25 12:22:15,149,107.00,"",119,36266.0,1,"",20,"",0.0790,""
"GSWS07_119",2015-07-26 01:40:15,150,107.00,"",119,36266.0,1,"",21,"",0.0770,""
"GSWS07_119",2015-07-26 14:58:15,151,107.00,"",119,36266.0,1,"",22,"",0.0740,""
"GSWS07_119",2015-07-27 04:16:15,152,107.00,"",119,36266.0,1,"",23,"",0.0720,""
"GSWS07_119",2015-07-27 17:34:15,153,107.00,"",119,36266.0,1,"",24,"",0.0640,""
"GSWS07_119",2015-07-28 06:52:15,154,107.00,"",119,36266.0,1,"",25,"",0.0700,""
"GSWS07_119",2015-07-28 20:10:15,155,107.00,"",119,36266.0,1,"",26,"",0.0640,""
"GSWS07_119",2015-07-29 09:28:15,156,107.00,"",119,36266.0,1,"",27,"",0.0700,""
"GSWS07_119",2015-07-29 22:46:15,157,107.00,"",119,36266.0,1,"",28,"",0.0660,""
"GSWS07_119",2015-07-30 12:04:15,158,107.00,"",119,36266.0,1,"",29,"",0.0660,""
"GSWS07_119",2015-07-31 01:22:15,159,107.00,"",119,36266.0,1,"",30,"",0.0700,""
"GSWS07_119",2015-07-31 14:40:15,160,107.00,"",119,36266.0,1,"",31,"",0.0660,""
"GSWS07_119",2015-08-01 03:58:15,161,107.00,"",119,36266.0,1,"",32,"",0.0700,""
"GSWS07_119",2015-08-01 17:16:15,162,107.00,"",119,36266.0,1,"",33,"",0.0640,""
"GSWS07_119",2015-08-02 06:34:15,163,107.00,"",119,36266.0,1,"",34,"",0.0700,""
"GSWS07_119",2015-08-02 19:52:15,164,107.00,"",119,36266.0,1,"",35,"",0.0660,""
"GSWS07_119",2015-08-03 09:10:15,165,107.00,"",119,36266.0,1,"",36,"",0.0720,""
"GSWS07_119",2015-08-03 22:28:15,166,107.00,"",119,36266.0,1,"",37,"",0.0700,""
"GSWS07_119",2015-08-04 11:46:15,167,107.00,"",119,36266.0,1,"",38,"",0.0680,""
"GSWS07_119",2015-08-04 16:28:15,168,107.00,"",119,36266.0,1,"",39,"",0.0640,""
"GSWS07_119",2015-08-05 01:04:15,169,107.00,"",119,36266.0,1,"",1,"",0.0670,""
"GSWS07_119",2015-08-05 14:22:15,170,107.00,"",119,36266.0,1,"",2,"",0.0640,""
"GSWS07_119",2015-08-06 03:40:15,171,107.00,"",119,36266.0,1,"",3,"",0.0710,""
"GSWS07_119",2015-08-06 16:58:15,172,107.00,"",119,36266.0,1,"",4,"",0.0640,""
"GSWS07_119",2015-08-07 06:16:15,173,107.00,"",119,36266.0,1,"",5,"",0.0700,""
"GSWS07_119",2015-08-07 19:34:15,174,107.00,"",119,36266.0,1,"",6,"",0.0630,""
"GSWS07_119",2015-08-08 08:52:15,175,107.00,"",119,36266.0,1,"",7,"",0.0700,""
"GSWS07_119",2015-08-08 22:10:15,176,107.00,"",119,36266.0,1,"",8,"",0.0660,""
"GSWS07_119",2015-08-09 11:28:15,177,107.00,"",119,36266.0,1,"",9,"",0.0690,""
"GSWS07_119",2015-08-10 00:46:15,178,107.00,"",119,36266.0,1,"",10,"",0.0680,""
"GSWS07_119",2015-08-10 14:04:15,179,107.00,"",119,36266.0,1,"",11,"",0.0650,""
"GSWS07_119",2015-08-11 03:22:15,180,107.00,"",119,36266.0,1,"",12,"",0.0710,""
"GSWS07_119",2015-08-11 16:40:15,181,107.00,"",119,36266.0,1,"",13,"",0.0600,""
"GSWS07_119",2015-08-12 05:58:15,182,107.00,"",119,36266.0,1,"",14,"",0.0660,""
"GSWS07_119",2015-08-12 19:16:15,183,107.00,"",119,36266.0,1,"",15,"",0.0570,""
"GSWS07_119",2015-08-13 08:34:15,184,107.00,"",119,36266.0,1,"",16,"",0.0660,""
"GSWS07_119",2015-08-13 21:52:15,185,107.00,"",119,36266.0,1,"",17,"",0.0610,""
"GSWS07_119",2015-08-14 11:10:15,186,107.00,"",119,36266.0,1,"",18,"",0.0660,""
"GSWS07_119",2015-08-15 00:28:15,187,107.00,"",119,36266.0,1,"",19,"",0.0660,""
"GSWS07_119",2015-08-15 13:46:15,188,107.00,"",119,36266.0,1,"",20,"",0.0620,""
"GSWS07_119",2015-08-16 03:04:15,189,107.00,"",119,36266.0,1,"",21,"",0.0660,""
"GSWS07_119",2015-08-16 16:22:15,190,107.00,"",119,36266.0,1,"",22,"",0.0600,""
"GSWS07_119",2015-08-17 05:40:15,191,107.00,"",119,36266.0,1,"",23,"",0.0660,""
"GSWS07_119",2015-08-17 18:58:15,192,107.00,"",119,36266.0,1,"",24,"",0.0600,""
"GSWS07_119",2015-08-18 08:16:15,193,107.00,"",119,36266.0,1,"",25,"",0.0670,""
"GSWS07_119",2015-08-18 09:24:45,194,107.00,"",119,36266.0,1,"",26,"",0.0680,""
"GSWS07_119",2015-08-18 21:34:15,195,107.00,"",119,36266.0,1,"",26,"",0.0600,""
"GSWS07_119",2015-08-19 10:52:15,196,107.00,"",119,36266.0,1,"",27,"",0.0640,""
"GSWS07_119",2015-08-20 00:10:15,197,107.00,"",119,36266.0,1,"",28,"",0.0620,""
"GSWS07_119",2015-08-20 13:28:15,198,107.00,"",119,36266.0,1,"",29,"",0.0610,""
"GSWS07_119",2015-08-21 02:46:15,199,107.00,"",119,36266.0,1,"",30,"",0.0640,""
"GSWS07_119",2015-08-21 16:04:15,200,107.00,"",119,36266.0,1,"",31,"",0.0580,""
"GSWS07_119",2015-08-22 05:22:15,201,107.00,"",119,36266.0,1,"",32,"",0.0640,""
"GSWS07_119",2015-08-22 18:40:15,202,107.00,"",119,36266.0,1,"",33,"",0.0550,""
"GSWS07_119",2015-08-23 07:58:15,203,107.00,"",119,36266.0,1,"",34,"",0.0640,""
"GSWS07_119",2015-08-23 21:16:15,204,107.00,"",119,36266.0,1,"",35,"",0.0550,""
"GSWS07_119",2015-08-24 10:34:15,205,107.00,"",119,36266.0,1,"",36,"",0.0610,""
"GSWS07_119",2015-08-24 13:40:15,206,107.00,"",119,36266.0,1,"",37,"",0.0530,""
"GSWS07_119",2015-08-24 23:52:15,207,107.00,"",119,36266.0,1,"",1,"",0.0570,""
"GSWS07_119",2015-08-25 13:10:15,208,107.00,"",119,36266.0,1,"",2,"",0.0580,""
"GSWS07_119",2015-08-26 02:28:15,209,107.00,"",119,36266.0,1,"",3,"",0.0630,""
"GSWS07_119",2015-08-26 15:46:15,210,107.00,"",119,36266.0,1,"",4,"",0.0570,""
"GSWS07_119",2015-08-27 05:04:15,211,107.00,"",119,36266.0,1,"",5,"",0.0640,""
"GSWS07_119",2015-08-27 18:22:15,212,107.00,"",119,36266.0,1,"",6,"",0.0570,""
"GSWS07_119",2015-08-28 07:40:15,213,107.00,"",119,36266.0,1,"",7,"",0.0680,""
"GSWS07_119",2015-08-28 20:58:15,214,107.00,"",119,36266.0,1,"",8,"",0.0640,""
"GSWS07_119",2015-08-29 10:16:15,215,107.00,"",119,36266.0,1,"",9,"",0.0790,""
"GSWS07_119",2015-08-29 23:34:15,216,107.00,"",119,36266.0,1,"",10,"",0.0740,""
"GSWS07_119",2015-08-30 12:52:15,217,107.00,"",119,36266.0,1,"",11,"",0.1150,""
"GSWS07_119",2015-08-31 02:10:15,218,107.00,"",119,36266.0,1,"",12,"",0.0850,""
"GSWS07_119",2015-08-31 15:28:15,219,107.00,"",119,36266.0,1,"",13,"",0.0750,""
"GSWS07_119",2015-09-01 04:46:15,220,107.00,"",119,36266.0,1,"",14,"",0.0760,""
"GSWS07_119",2015-09-01 18:04:15,221,107.00,"",119,36266.0,1,"",15,"",0.0640,""
"GSWS07_119",2015-09-02 07:22:15,222,107.00,"",119,36266.0,1,"",16,"",0.0810,""
"GSWS07_119",2015-09-02 20:40:15,223,107.00,"",119,36266.0,1,"",17,"",0.1100,""
"GSWS07_119",2015-09-03 09:58:15,224,107.00,"",119,36266.0,1,"",18,"",0.0840,""
"GSWS07_119",2015-09-03 23:16:15,225,107.00,"",119,36266.0,1,"",19,"",0.0790,""
"GSWS07_119",2015-09-04 12:34:15,226,107.00,"",119,36266.0,1,"",20,"",0.0780,""
"GSWS07_119",2015-09-05 01:52:15,227,107.00,"",119,36266.0,1,"",21,"",0.0960,""
"GSWS07_119",2015-09-05 15:10:15,228,107.00,"",119,36266.0,1,"",22,"",0.0870,""
"GSWS07_119",2015-09-06 04:28:15,229,107.00,"",119,36266.0,1,"",23,"",0.0810,""
"GSWS07_119",2015-09-06 17:46:15,230,107.00,"",119,36266.0,1,"",24,"",0.0760,""
"GSWS07_119",2015-09-07 07:04:15,231,107.00,"",119,36266.0,1,"",25,"",0.0760,""
"GSWS07_119",2015-09-07 20:22:15,232,107.00,"",119,36266.0,1,"",26,"",0.0730,""
"GSWS07_119",2015-09-08 09:40:15,233,107.00,"",119,36266.0,1,"",27,"",0.0740,""
"GSWS07_119",2015-09-08 22:58:15,234,107.00,"",119,36266.0,1,"",27,"",0.0700,""
"GSWS07_119",2015-09-09 12:16:15,235,107.00,"",119,36266.0,1,"",28,"",0.0710,""
"GSWS07_119",2015-09-10 01:34:15,236,107.00,"",119,36266.0,1,"",29,"",0.0700,""
"GSWS07_119",2015-09-10 14:52:15,237,107.00,"",119,36266.0,1,"",30,"",0.0680,""
"GSWS07_119",2015-09-11 04:10:15,238,107.00,"",119,36266.0,1,"",31,"",0.0690,""
"GSWS07_119",2015-09-11 17:28:15,239,107.00,"",119,36266.0,1,"",32,"",0.0670,""
"GSWS07_119",2015-09-12 06:46:15,240,107.00,"",119,36266.0,1,"",33,"",0.0700,""
"GSWS07_119",2015-09-12 20:04:15,241,107.00,"",119,36266.0,1,"",34,"",0.0640,""
"GSWS07_119",2015-09-13 09:22:15,242,107.00,"",119,36266.0,1,"",35,"",0.0680,""
"GSWS07_119",2015-09-13 22:40:15,243,107.00,"",119,36266.0,1,"",36,"",0.0650,""
"GSWS07_119",2015-09-14 11:58:15,244,107.00,"",119,36266.0,1,"",37,"",0.0640,""
"GSWS07_119",2015-09-14 13:18:15,245,107.00,"",119,36266.0,1,"",38,"",0.0630,""
"GSWS07_119",2015-09-15 01:16:15,246,107.00,"",119,36266.0,1,"",1,"",0.0640,""
"GSWS07_119",2015-09-15 14:34:15,247,107.00,"",119,36266.0,1,"",2,"",0.0660,""
"GSWS07_119",2015-09-16 03:52:15,248,107.00,"",119,36266.0,1,"",3,"",0.0660,""
"GSWS07_119",2015-09-16 17:10:15,249,107.00,"",119,36266.0,1,"",4,"",0.0660,""
"GSWS07_119",2015-09-17 06:28:15,250,107.00,"",119,36266.0,1,"",5,"",0.1510,""
"GSWS07_119",2015-09-17 19:46:15,251,107.00,"",119,36266.0,1,"",6,"",0.1370,""
"GSWS07_119",2015-09-18 09:04:15,252,107.00,"",119,36266.0,1,"",7,"",0.0890,""
"GSWS07_119",2015-09-18 22:22:15,253,107.00,"",119,36266.0,1,"",8,"",0.0810,""
"GSWS07_119",2015-09-19 11:40:15,254,107.00,"",119,36266.0,1,"",9,"",0.0790,""
"GSWS07_119",2015-09-20 00:58:15,255,107.00,"",119,36266.0,1,"",10,"",0.0750,""
"GSWS07_119",2015-09-20 14:16:15,256,107.00,"",119,36266.0,1,"",11,"",0.0750,""
"GSWS07_119",2015-09-21 03:34:15,257,107.00,"",119,36266.0,1,"",12,"",0.0740,""
"GSWS07_119",2015-09-21 16:52:15,258,107.00,"",119,36266.0,1,"",13,"",0.0740,""
"GSWS07_119",2015-09-22 06:10:15,259,107.00,"",119,36266.0,1,"",14,"",0.0760,""
"GSWS07_119",2015-09-22 19:28:15,260,107.00,"",119,36266.0,1,"",15,"",0.0700,""
"GSWS07_119",2015-09-23 08:46:15,261,107.00,"",119,36266.0,1,"",16,"",0.0720,""
"GSWS07_119",2015-09-23 22:04:15,262,107.00,"",119,36266.0,1,"",17,"",0.0700,""
"GSWS07_119",2015-09-24 11:22:15,263,107.00,"",119,36266.0,1,"",18,"",0.0700,""
"GSWS07_119",2015-09-25 00:40:15,264,107.00,"",119,36266.0,1,"",19,"",0.0690,""
"GSWS07_119",2015-09-25 13:58:15,265,107.00,"",119,36266.0,1,"",20,"",0.0680,""
"GSWS07_119",2015-09-26 03:16:15,266,107.00,"",119,36266.0,1,"",21,"",0.0680,""
"GSWS07_119",2015-09-26 16:34:15,267,107.00,"",119,36266.0,1,"",22,"",0.0690,""
"GSWS07_119",2015-09-27 05:52:15,268,107.00,"",119,36266.0,1,"",23,"",0.0700,""
"GSWS07_119",2015-09-27 19:10:15,269,107.00,"",119,36266.0,1,"",24,"",0.0680,""
"GSWS07_119",2015-09-28 08:28:15,270,107.00,"",119,36266.0,1,"",25,"",0.0680,""
"GSWS07_119",2015-09-28 21:46:15,271,107.00,"",119,36266.0,1,"",26,"",0.0680,""
"GSWS07_119",2015-09-29 10:37:45,272,107.00,"",119,36266.0,1,"",27,"",0.0680,""
"GSWS07_119",2015-09-30 00:22:15,273,107.00,"",119,36266.0,0,"",28,"",0.0390,""
"GSWS07_119",2015-09-30 13:40:15,274,107.00,"",119,36266.0,0,"",29,"",0.0390,""
